Weather History for Lancaster, CA

Change the Weather History Date:

Wednesday, April 16, 2014

  Actual Average Record
Temperature  
Mean Temperature 74 °F 59 °F  
Max Temperature 87 °F 73 °F 94 °F (1954)
Min Temperature 60 °F 45 °F 32 °F (1983)
Degree Days  
Heating Degree Days 0    
Month to date heating degree days 99  
Since 1 July heating degree days 2623  
Cooling Degree Days 9    
Month to date cooling degree days 15  
Year to date cooling degree days 21  
Growing Degree Days 23 (Base 50)    
Moisture  
Dew Point 26 °F    
Average Humidity 22    
Maximum Humidity 36    
Minimum Humidity 8    
Precipitation  
Precipitation 0.00 in 0.01 in 0.15 in (1995)
Month to date precipitation 0.09 0.23  
Year to date precipitation 2.18 4.65  
Since 1 July precipitation 3.79 7.12  
Snow  
Snow 0.00 in - 0.00 in ()
Month to date snowfall 0.0  
Since 1 July snowfall 0.0  
Snow Depth 0.00 in    
Sea Level Pressure  
Sea Level Pressure 29.79 in    
Wind  
Wind Speed 16 mph (West)    
Max Wind Speed 30 mph    
Max Gust Speed 37 mph    
Visibility 10 miles    
Events      
T = Trace of Precipitation, MM = Missing Value Source: NWS Daily Summary

Daily Weather History Graph

Daily Weather History Graph

Search for Another Location

Airport:

Trip Planner

Search our weather history database for the weather conditions in past years. The results will help you decide how hot, cold, wet, or windy it might be!

Date:

Astronomy

Apr. 16, 2014 Rise Set
Actual Time 6:19 AM PDT 7:25 PM PDT
Civil Twilight 5:53 AM PDT 7:52 PM PDT
Nautical Twilight 5:22 AM PDT 8:23 PM PDT
Astronomical Twilight 4:50 AM PDT 8:55 PM PDT
Moon 9:10 PM PDT (4/16) 7:13 AM PDT (4/16)
Length of Visible Light 13h 58m
Length of Day
13h 06m
Full, 98% of the Moon is Illuminated
Apr 16
Full
Apr 22
Last Quarter
Apr 28
New
May 6
First Quarter
May 14
Full

Hourly Weather History & Observations

Time (PDT) Temp. Dew Point Humidity Pressure Visibility Wind Dir Wind Speed Gust Speed Precip Events Conditions
12:56 AM 62.1 °F 28.9 °F 29% 29.82 in 10.0 mi West 9.2 mph - N/A   Clear
1:56 AM 63.0 °F 30.0 °F 29% 29.81 in 10.0 mi West 15.0 mph - N/A   Clear
2:56 AM 62.1 °F 28.0 °F 28% 29.80 in 10.0 mi West 16.1 mph - N/A   Clear
3:56 AM 60.1 °F 30.0 °F 32% 29.81 in 10.0 mi WSW 15.0 mph - N/A   Clear
4:56 AM 61.0 °F 30.9 °F 32% 29.79 in 10.0 mi West 16.1 mph - N/A   Clear
5:56 AM 60.1 °F 33.1 °F 36% 29.80 in 10.0 mi West 16.1 mph - N/A   Clear
6:56 AM 61.0 °F 33.1 °F 35% 29.81 in 10.0 mi West 16.1 mph - N/A   Clear
7:56 AM 66.0 °F 34.0 °F 30% 29.82 in 10.0 mi West 13.8 mph 23.0 mph N/A   Clear
8:56 AM 71.1 °F 28.0 °F 20% 29.82 in 10.0 mi West 15.0 mph - N/A   Clear
9:56 AM 75.0 °F 23.0 °F 14% 29.81 in 10.0 mi Variable 4.6 mph - N/A   Clear
10:56 AM 78.1 °F 18.0 °F 10% 29.82 in 10.0 mi Variable 3.5 mph - N/A   Clear
11:56 AM 81.0 °F 15.1 °F 8% 29.80 in 10.0 mi Variable 4.6 mph - N/A   Clear
12:56 PM 82.9 °F 17.1 °F 9% 29.77 in 10.0 mi West 12.7 mph 17.3 mph N/A   Clear
1:56 PM 86.0 °F 19.9 °F 9% 29.74 in 10.0 mi West 18.4 mph 24.2 mph N/A   Clear
2:56 PM 86.0 °F 21.9 °F 10% 29.73 in 10.0 mi West 21.9 mph - N/A   Clear
3:56 PM 82.9 °F 27.0 °F 13% 29.73 in 10.0 mi West 24.2 mph - N/A   Clear
4:56 PM 81.0 °F 30.0 °F 16% 29.72 in 10.0 mi West 27.6 mph - N/A   Clear
5:56 PM 78.1 °F 28.0 °F 16% 29.72 in 10.0 mi West 27.6 mph 33.4 mph N/A   Clear
6:56 PM 73.9 °F 33.1 °F 22% 29.74 in 10.0 mi West 23.0 mph 32.2 mph N/A   Clear
7:56 PM 70.0 °F 21.0 °F 16% 29.77 in 10.0 mi West 24.2 mph - N/A   Clear
8:56 PM 66.9 °F 21.9 °F 18% 29.79 in 10.0 mi West 13.8 mph - N/A   Clear
9:56 PM 66.0 °F 24.1 °F 20% 29.81 in 10.0 mi West 16.1 mph - N/A   Clear
10:56 PM 64.9 °F 23.0 °F 20% 29.81 in 10.0 mi WSW 8.1 mph - N/A   Clear
11:56 PM 64.0 °F 21.9 °F 20% 29.81 in 10.0 mi WSW 10.4 mph - N/A   Clear